When you browse on this site, cookies collect data to enhance your experience and personalize the content and advertising you see.
Visit our Privacy Policy to learn more. By continuing to use the site, you agree to this use of cookies and data.
  • In Schweiz
  • Länderverzeichnis
  • Für 7 Tage
  • Wassertemperatur
  • Satellitenkarten
  • Wetterkarte
  • Widgets
  • user-avatar
    Anmelden

    Stündliche Wetter Tomashivka

    Heute, 16 Juli, Dienstag

    Zeit Temperatur Niederschläge Wind Luftdruck Luftfeuchtigkeit
    00:00 +20°C° 0 mm 3 m/S 753 mmHg 74%
    01:00 +20°C° 0 mm 2 m/S 753 mmHg 72%
    02:00 +20°C° 0 mm 1 m/S 753 mmHg 71%
    03:00 +19°C° 0.1 mm 2 m/S 753 mmHg 71%
    04:00 +20°C° 0.1 mm 2 m/S 753 mmHg 71%
    05:00 +20°C° 0.1 mm 2 m/S 753 mmHg 70%
    06:00 +21°C° 0 mm 3 m/S 753 mmHg 67%
    07:00 +22°C° 0 mm 4 m/S 753 mmHg 63%
    08:00 +23°C° 0 mm 4 m/S 753 mmHg 59%
    09:00 +26°C° 0.1 mm 5 m/S 753 mmHg 54%
    10:00 +27°C° 0.1 mm 5 m/S 753 mmHg 49%
    11:00 +28°C° 0.1 mm 5 m/S 753 mmHg 44%
    12:00 +29°C° 0 mm 5 m/S 753 mmHg 42%
    13:00 +30°C° 0 mm 5 m/S 753 mmHg 40%
    14:00 +30°C° 0 mm 6 m/S 754 mmHg 38%
    15:00 +30°C° 0 mm 6 m/S 754 mmHg 40%
    16:00 +29°C° 0 mm 6 m/S 754 mmHg 43%
    17:00 +28°C° 0 mm 6 m/S 754 mmHg 45%
    18:00 +27°C° 0 mm 6 m/S 754 mmHg 50%
    19:00 +24°C° 0 mm 6 m/S 754 mmHg 56%
    20:00 +23°C° 0 mm 5 m/S 754 mmHg 61%
    21:00 +22°C° 0 mm 5 m/S 754 mmHg 64%
    22:00 +22°C° 0 mm 4 m/S 754 mmHg 67%
    23:00 +22°C° 0 mm 4 m/S 754 mmHg 70%

    Morgen, 17 Juli, Mittwoch

    Zeit Temperatur Niederschläge Wind Luftdruck Luftfeuchtigkeit
    00:00 +21°C° 0 mm 3 m/S 754 mmHg 71%
    01:00 +21°C° 0 mm 3 m/S 754 mmHg 72%
    02:00 +20°C° 0 mm 3 m/S 754 mmHg 73%
    03:00 +20°C° 0 mm 2 m/S 754 mmHg 73%
    04:00 +20°C° 0 mm 2 m/S 754 mmHg 72%
    05:00 +20°C° 0 mm 2 m/S 754 mmHg 72%
    06:00 +23°C° 0 mm 2 m/S 754 mmHg 65%
    07:00 +24°C° 0 mm 2 m/S 754 mmHg 57%
    08:00 +26°C° 0 mm 3 m/S 754 mmHg 50%
    09:00 +27°C° 0 mm 3 m/S 754 mmHg 46%
    10:00 +28°C° 0 mm 3 m/S 754 mmHg 42%
    11:00 +28°C° 0 mm 3 m/S 754 mmHg 38%
    12:00 +29°C° 0 mm 3 m/S 754 mmHg 36%
    13:00 +30°C° 0 mm 3 m/S 754 mmHg 34%
    14:00 +30°C° 0 mm 3 m/S 754 mmHg 33%
    15:00 +30°C° 0 mm 4 m/S 754 mmHg 35%
    16:00 +29°C° 0 mm 5 m/S 754 mmHg 38%
    17:00 +29°C° 0 mm 5 m/S 754 mmHg 40%
    18:00 +27°C° 0 mm 5 m/S 754 mmHg 46%
    19:00 +25°C° 0 mm 5 m/S 754 mmHg 51%
    20:00 +23°C° 0 mm 4 m/S 754 mmHg 57%
    21:00 +23°C° 0 mm 4 m/S 754 mmHg 58%
    22:00 +22°C° 0 mm 4 m/S 755 mmHg 59%
    23:00 +22°C° 0 mm 4 m/S 755 mmHg 61%

    übermorgen, 18 Juli, Donnerstag

    Zeit Temperatur Niederschläge Wind Luftdruck Luftfeuchtigkeit
    00:00 +22°C° 0 mm 4 m/S 755 mmHg 62%
    01:00 +22°C° 0 mm 3 m/S 755 mmHg 63%
    02:00 +21°C° 0 mm 3 m/S 755 mmHg 64%
    03:00 +21°C° 0 mm 3 m/S 755 mmHg 66%
    04:00 +21°C° 0 mm 3 m/S 755 mmHg 67%
    05:00 +21°C° 0 mm 3 m/S 755 mmHg 68%
    06:00 +22°C° 0 mm 3 m/S 755 mmHg 61%
    07:00 +25°C° 0 mm 3 m/S 755 mmHg 55%
    08:00 +26°C° 0 mm 3 m/S 755 mmHg 49%
    09:00 +27°C° 0 mm 3 m/S 755 mmHg 45%
    10:00 +28°C° 0 mm 3 m/S 756 mmHg 41%
    11:00 +29°C° 0 mm 3 m/S 756 mmHg 37%
    12:00 +30°C° 0 mm 3 m/S 756 mmHg 35%
    13:00 +30°C° 0 mm 3 m/S 756 mmHg 34%
    14:00 +31°C° 0 mm 3 m/S 756 mmHg 32%
    15:00 +30°C° 0 mm 4 m/S 756 mmHg 35%
    16:00 +30°C° 0 mm 4 m/S 756 mmHg 38%
    17:00 +29°C° 0 mm 4 m/S 756 mmHg 40%
    18:00 +27°C° 0 mm 4 m/S 757 mmHg 47%
    19:00 +26°C° 0 mm 4 m/S 757 mmHg 54%
    20:00 +23°C° 0 mm 4 m/S 757 mmHg 61%
    21:00 +23°C° 0 mm 4 m/S 758 mmHg 61%
    22:00 +23°C° 0 mm 4 m/S 758 mmHg 60%
    23:00 +24°C° 0 mm 3 m/S 758 mmHg 60%

    19 Juli, Freitag

    Zeit Temperatur Niederschläge Wind Luftdruck Luftfeuchtigkeit
    00:00 +22°C° 0 mm 3 m/S 758 mmHg 60%
    01:00 +22°C° 0 mm 3 m/S 758 mmHg 59%
    02:00 +22°C° 0 mm 3 m/S 759 mmHg 58%
    03:00 +21°C° 0 mm 3 m/S 759 mmHg 59%
    04:00 +21°C° 0 mm 3 m/S 759 mmHg 59%
    05:00 +21°C° 0 mm 2 m/S 759 mmHg 60%
    06:00 +24°C° 0 mm 3 m/S 759 mmHg 53%
    07:00 +25°C° 0 mm 3 m/S 759 mmHg 47%
    08:00 +27°C° 0 mm 3 m/S 760 mmHg 41%
    09:00 +28°C° 0 mm 3 m/S 760 mmHg 38%
    10:00 +28°C° 0 mm 3 m/S 760 mmHg 34%
    11:00 +29°C° 0 mm 3 m/S 760 mmHg 31%
    12:00 +30°C° 0 mm 3 m/S 760 mmHg 30%
    13:00 +31°C° 0 mm 3 m/S 760 mmHg 30%
    14:00 +31°C° 0 mm 3 m/S 760 mmHg 30%
    15:00 +31°C° 0 mm 3 m/S 760 mmHg 32%
    16:00 +32°C° 0 mm 4 m/S 760 mmHg 34%
    17:00 +30°C° 0 mm 5 m/S 760 mmHg 36%
    18:00 +28°C° 0 mm 4 m/S 760 mmHg 41%
    19:00 +27°C° 0 mm 3 m/S 760 mmHg 46%
    20:00 +25°C° 0 mm 3 m/S 761 mmHg 52%
    21:00 +25°C° 0 mm 2 m/S 761 mmHg 54%
    22:00 +24°C° 0 mm 2 m/S 761 mmHg 55%
    23:00 +23°C° 0 mm 1 m/S 761 mmHg 57%

    20 Juli, Samstag

    Zeit Temperatur Niederschläge Wind Luftdruck Luftfeuchtigkeit
    00:00 +23°C° 0 mm 1 m/S 761 mmHg 57%
    01:00 +23°C° 0 mm 1 m/S 761 mmHg 58%
    02:00 +23°C° 0 mm 1 m/S 761 mmHg 58%
    03:00 +23°C° 0 mm 2 m/S 761 mmHg 59%
    04:00 +23°C° 0 mm 2 m/S 761 mmHg 59%
    05:00 +23°C° 0 mm 2 m/S 761 mmHg 59%
    06:00 +25°C° 0 mm 3 m/S 762 mmHg 53%
    07:00 +27°C° 0 mm 3 m/S 762 mmHg 47%
    08:00 +29°C° 0 mm 4 m/S 762 mmHg 41%
    09:00 +29°C° 0 mm 4 m/S 762 mmHg 39%
    10:00 +30°C° 0 mm 4 m/S 762 mmHg 37%
    11:00 +32°C° 0 mm 5 m/S 762 mmHg 36%
    12:00 +32°C° 0 mm 4 m/S 762 mmHg 35%
    13:00 +32°C° 0 mm 4 m/S 762 mmHg 34%
    14:00 +33°C° 0 mm 4 m/S 761 mmHg 33%
    15:00 +32°C° 0 mm 4 m/S 761 mmHg 34%
    16:00 +32°C° 0 mm 4 m/S 761 mmHg 35%
    17:00 +30°C° 0 mm 5 m/S 761 mmHg 36%
    18:00 +29°C° 0 mm 4 m/S 761 mmHg 41%
    19:00 +27°C° 0 mm 3 m/S 761 mmHg 46%
    20:00 +25°C° 0 mm 3 m/S 761 mmHg 51%
    21:00 +25°C° 0 mm 3 m/S 761 mmHg 52%
    22:00 +24°C° 0 mm 2 m/S 762 mmHg 54%
    23:00 +24°C° 0 mm 2 m/S 762 mmHg 56%

    21 Juli, Sonntag

    Zeit Temperatur Niederschläge Wind Luftdruck Luftfeuchtigkeit
    00:00 +24°C° 0 mm 2 m/S 761 mmHg 56%
    01:00 +24°C° 0 mm 3 m/S 761 mmHg 57%
    02:00 +24°C° 0 mm 3 m/S 761 mmHg 58%
    03:00 +24°C° 0 mm 3 m/S 761 mmHg 60%
    04:00 +24°C° 0 mm 3 m/S 761 mmHg 61%
    05:00 +23°C° 0 mm 4 m/S 761 mmHg 63%
    06:00 +25°C° 0 mm 4 m/S 761 mmHg 57%
    07:00 +27°C° 0 mm 5 m/S 761 mmHg 52%
    08:00 +29°C° 0 mm 5 m/S 761 mmHg 47%
    09:00 +30°C° 0 mm 5 m/S 761 mmHg 45%
    10:00 +30°C° 0 mm 6 m/S 761 mmHg 43%
    11:00 +32°C° 0 mm 6 m/S 761 mmHg 41%
    12:00 +32°C° 0 mm 6 m/S 761 mmHg 39%
    13:00 +33°C° 0 mm 6 m/S 761 mmHg 37%
    14:00 +33°C° 0 mm 6 m/S 761 mmHg 35%
    15:00 +33°C° 0 mm 6 m/S 761 mmHg 35%
    16:00 +32°C° 0 mm 5 m/S 761 mmHg 36%
    17:00 +32°C° 0 mm 5 m/S 761 mmHg 36%
    18:00 +29°C° 0 mm 4 m/S 761 mmHg 40%
    19:00 +28°C° 0 mm 2 m/S 761 mmHg 44%
    20:00 +26°C° 0 mm 1 m/S 761 mmHg 48%
    21:00 +26°C° 0 mm 1 m/S 761 mmHg 49%
    22:00 +26°C° 0 mm 1 m/S 761 mmHg 50%
    23:00 +25°C° 0 mm 1 m/S 761 mmHg 51%
    Mehr zeigen